Location: Misciano
(43.5000°N, 11.9500°E)
Time: 10:40:30
(UTC+00:00)

Cosmos 2084 Rocket - Pass Details

Date: 13 August 2020
Orbit: 549 x 631 km, 62.8° (Epoch: 20 September)

Event Time Altitude Azimuth Distance (km) Brightness Sun altitude
Rises 20:51:30 0° 231° (SW) 2,729 6.9 -23.3°
Reaches altitude 10° 20:53:44 10° 236° (WSW) 1,847 6.0 -23.6°
Maximum altitude 20:57:47 49° 312° (NW) 741 4.3 -24.0°
Drops below altitude 10° 21:01:56 10° 28° (NNE) 1,902 6.3 -24.5°
Sets 21:04:17 0° 34° (NE) 2,820 7.2 -24.7°
